Tracking 28794 objects as of 19-Apr-2024
HD Live streaming from Space Station
objects crossing your sky now

SL-8 DEB

Track SL-8 DEB now!
10-day predictions


NORAD ID: 29289
Int'l Code: 1981-120T
Perigee: 1,574.4 km
Apogee: 1,662.9 km
Inclination: 83.0 °
Period: 118.5 minutes
Semi major axis: 7989 km
RCS: 0.0067 m2 (small)
Launch date: December 17, 1981
Source: Commonwealth of Independent States (former USSR) (CIS)
Launch site: PLESETSK MISSILE AND SPACE COMPLEX (PKMTR)

Note: This is SATELLITE DEBRIS
Your satellite tracking list
Your tracking list is empty




NASA's NSSDC Master Catalog

Two Line Element Set (TLE):
1 29289U 81120T   24107.42092443  .00000068  00000-0  59361-3 0  9995
2 29289  82.9644 350.4613 0055387 150.9680  23.8068 12.15650361481149
Source of the keplerian elements: AFSPC